Other Public Products
Issued by NWS Grand Forks, ND

Home | Current Version | Previous Version | Graphics & Text | Print | Product List | Glossary On
Versions: 1 2 3 4 5 6 7 8 9 10 11 12 13 14 15 16 17 18 19 20 21 22 23 24 25 26 27 28 29 30 31 32 33 34 35 36 37 38 39 40 41 42 43 44 45 46 47 48 49 50
000
FPUS83 KFGF 311810
OPUFGF
PRAIRIE TO PINES WEATHER ROUNDUP
NATIONAL WEATHER SERVICE EASTERN NORTH DAKOTA/GRAND FORKS ND
100 PM CDT MON AUG 31 2015

 **SATELLITE DATA USED TO AUGMENT SKY COVER AT AUTOMATED STATIONS**
 *****  WEATHER ACROSS EASTERN NORTH DAKOTA  *****

CITY           SKY/WX    TMP DP  RH WIND       PRES   REMARKS
GRAND FORKS    PTSUNNY   80  63  55 N14       29.75R
6HR MIN TEMP:  64; 6HR MAX TEMP:  80;

GRAND FORKS AF PTSUNNY   78  63  59 N17       29.77R
GRAND CITY NWS   N/A     79 N/A N/A N6          N/A
BUXTON         NOT AVBL
DEVILS LAKE    MOSUNNY   73  54  49 W14G23    29.79S
6HR MIN TEMP:  64; 6HR MAX TEMP:  75;

FARGO          PTSUNNY   81  65  58 W12       29.76R
6HR MIN TEMP:  66; 6HR MAX TEMP:  82;

WAHPETON ARPT  PTCLDY    82  55  39 SW10G20   29.77R
$$

 *****  WEATHER ACROSS CENTRAL AND WESTERN NORTH DAKOTA  *****

CITY           SKY/WX    TMP DP  RH WIND       PRES   REMARKS
JAMESTOWN      PTSUNNY   75  60  59 N12G20    29.83R
6HR MIN TEMP:  66; 6HR MAX TEMP:  75; 6HR PCP: TRACE;

BISMARCK       PTSUNNY   76  52  43 NW12      29.90R
6HR MIN TEMP:  68; 6HR MAX TEMP:  77;

MINOT          SUNNY     74  43  32 W20G26    29.84S
6HR MIN TEMP:  61; 6HR MAX TEMP:  74; 6HR PCP: TRACE;

MINOT AFB      SUNNY     74  43  32 W14G28    29.81F
6HR MIN TEMP:  62; 6HR MAX TEMP:  74;

GARRISON         N/A     73  47  39 W17G24    29.88S
6HR MIN TEMP:  62; 6HR MAX TEMP:  73;

WILLISTON      SUNNY     74  40  29 W15G23    29.87F
DICKINSON      SUNNY     74  41  30 W15       29.93F
6HR MIN TEMP:  57; 6HR MAX TEMP:  74;

HETTINGER      PTSUNNY   75  43  31 W13       29.97S
6HR MIN TEMP:  59; 6HR MAX TEMP:  75;

$$

 *****  OTHER OBSERVATIONS NORTHEAST NORTH DAKOTA  *****

CITY           SKY/WX    TMP DP  RH WIND       PRES   REMARKS
WALHALLA       NOT AVBL
LANGDON        FAIR      81  52  36 W17       29.78R
CAVALIER       FAIR      75  63  64 NW5       29.74F
GRAFTON        FAIR      77  63  61 W12G17    29.76S
CANDO          NOT AVBL
FORT TOTTEN      N/A     75  61  62 NW5       29.95S
ROLLA            N/A     73  50  43 W21G30    29.81S
RUGBY          FAIR      73  48  40 W17G30    29.82F
 ***** THE ABOVE OBSERVATIONS ARE NON NWS ARE NOT QUALITY
        CONTROLLED AND MAY MIS-REPORT RAIN FOR SNOW...
$$

 *****  OTHER OBSERVATIONS SOUTHEAST NORTH DAKOTA *****

CITY           SKY/WX    TMP DP  RH WIND       PRES   REMARKS
COOPERSTOWN    NOT AVBL
VALLEY CITY    FAIR      75  64  69 NW18G25   29.81R
OAKES            N/A     79  75  89 N16       29.81R
GWINNER        FAIR      79  66  65 NW10      29.80S
SHEYENNE NWR     N/A     79  66  64 NW8       29.95S
BUFFALO        NOT AVBL
WYNDMERE         N/A     82  64  54 W12         N/A
 ***** THE ABOVE OBSERVATIONS ARE NON NWS ARE NOT QUALITY
       CONTROLLED AND MAY MIS-REPORT RAIN FOR SNOW...
$$

  *****  WEATHER ACROSS NORTHERN MINNESOTA  *****

CITY           SKY/WX    TMP DP  RH WIND       PRES   REMARKS
FLAG ISLAND    CLOUDY    68  63  83 SW15      29.69S HAZE
WARROAD        CLOUDY    68  64  88 SW8       29.73S
ROSEAU         PTSUNNY   72  64  78 SW12      29.73S
HALLOCK        PTSUNNY   75  63  64 NW16G22   29.74R
THF RVR FALLS  CLOUDY   N/A N/A N/A W9        29.76R
HALSTAD        NOT AVBL
FOSSTON        MOSUNNY   75  61  60 SW16      29.78R
BAUDETTE       PTSUNNY   77  63  61 SW12G20   29.71R
6HR MIN TEMP:  63; 6HR MAX TEMP:  79;

WASKISH        SUNNY     81  64  57 SW13      29.74R
CROOKSTON      CLOUDY    73  66  78 NW7       29.76R
$$
  *****  WEATHER ACROSS CENTRAL AND WEST MINNESOTA  *****

CITY           SKY/WX    TMP DP  RH WIND       PRES   REMARKS
BEMIDJI        SUNNY     81  61  49 SW13G23   29.76S
PARK RAPIDS    SUNNY     85  58  39 SW16G25   29.79F
6HR MIN TEMP:  64; 6HR MAX TEMP:  85;

WADENA         SUNNY     81  63  54 S16G22    29.81S
DETROIT LAKES  FAIR      79  61  53 SW10G21   29.80R
MOORHEAD       PTSUNNY   81  63  54 W14       29.77R
FERGUS FALLS   MOSUNNY   82  66  57 S13       29.78S
ELBOW LAKE     FAIR      80  66  62 S15G21    29.81S
6HR MIN TEMP:  64; 6HR MAX TEMP:  80;

MORRIS MN      SUNNY     82  66  57 S16G25    29.81S
STAPLES        SUNNY     81  63  54 S10G18    29.82F
WHEATON        SUNNY     82  63  51 W10       29.80S
$$
  *****  WEATHER ELSEWHERE ACROSS MINNESOTA  *****

CITY           SKY/WX    TMP DP  RH WIND       PRES   REMARKS
DULUTH         SUNNY     78  64  61 SW20      29.88F
6HR MIN TEMP:  64; 6HR MAX TEMP:  78;

INTRNTL FALLS  SUNNY     80  62  54 S13G24    29.72F
6HR MIN TEMP:  64; 6HR MAX TEMP:  80;

ELY            MOSUNNY   79  57  47 SW10      29.82F
CLOQUET        SUNNY     77  63  61 S13       29.88S
BRAINERD       SUNNY     80  64  58 S18G26    29.84F
6HR MIN TEMP:  63; 6HR MAX TEMP:  80;

HIBBING        MOSUNNY   80  62  54 S10G21    29.82F
6HR MIN TEMP:  58; 6HR MAX TEMP:  80;

ALEXANDRIA     SUNNY     80  67  64 S21G26    29.85S
6HR MIN TEMP:  65; 6HR MAX TEMP:  80;

SAINT CLOUD    SUNNY     79  69  71 S17G24    29.87F
6HR MIN TEMP:  64; 6HR MAX TEMP:  80;

MINNEAPOLIS    PTSUNNY   81  69  67 S13G21    29.92F
6HR MIN TEMP:  66; 6HR MAX TEMP:  81;

$$

  *****  WEATHER ACROSS SOUTH DAKOTA  *****

CITY           SKY/WX    TMP DP  RH WIND       PRES   REMARKS
SIOUX FALLS    SUNNY     79  69  71 S21G26    29.88F
6HR MIN TEMP:  65; 6HR MAX TEMP:  79;

BROOKINGS      SUNNY     79  66  65 S18       29.87F
WATERTOWN      SUNNY     81  65  58 SW18G29   29.82F
6HR MIN TEMP:  64; 6HR MAX TEMP:  81;

HURON          SUNNY     85  63  47 SW8       29.81R
6HR MIN TEMP:  66; 6HR MAX TEMP:  85;

SISSETON         N/A     85  62  46 W13       29.78F
ABERDEEN       PTSUNNY   77  63  61 NW9       29.84R
6HR MIN TEMP:  67; 6HR MAX TEMP:  78;

MITCHELL       SUNNY     84  66  54 S16       29.83F
PIERRE         CLOUDY    77  59  53 NW23      29.91R
6HR MIN TEMP:  69; 6HR MAX TEMP:  80;

MOBRIDGE       CLOUDY    74  61  63 N17       29.85F
RAPID CITY     CLOUDY    70  55  59 N12       30.02R
6HR MIN TEMP:  64; 6HR MAX TEMP:  73;

$$

  *****  SOME WEATHER IN NEARBY STATES *****

CITY           SKY/WX    TMP DP  RH WIND       PRES   REMARKS
GLASGOW MT     SUNNY     71  40  32 W15       29.87F
6HR MIN TEMP:  51; 6HR MAX TEMP:  71;

GREAT FALLS MT MOSUNNY   69  33  26 SW25G35   29.93F
6HR MIN TEMP:  52; 6HR MAX TEMP:  69;

CHEYENNE WY    MOSUNNY   82  43  25 W5        30.16F
6HR MIN TEMP:  65; 6HR MAX TEMP:  82;

SCOTTSBLUFF NE PTSUNNY   85  49  28 NW6       30.02F
6HR MIN TEMP:  69; 6HR MAX TEMP:  85; 6HR PCP: TRACE;

OMAHA NE       MOSUNNY   83  70  64 S12       29.95F
6HR MIN TEMP:  65; 6HR MAX TEMP:  83;

DES MOINES IA  MOSUNNY   85  71  63 S12       29.97F HX  90
6HR MIN TEMP:  68; 6HR MAX TEMP:  86;

DAVENPORT IA   MOSUNNY   84  70  62 S7        30.04F
6HR MIN TEMP:  63; 6HR MAX TEMP:  84;

CHICAGO IL     MOSUNNY   83  67  58 CALM      30.06F
6HR MIN TEMP:  62; 6HR MAX TEMP:  83;

EAU CLAIRE WI  CLOUDY    75  67  76 S10       29.98F
6HR MIN TEMP:  63; 6HR MAX TEMP:  75;

LA CROSSE WI   SUNNY     80  69  69 S10       29.99F
6HR MIN TEMP:  65; 6HR MAX TEMP:  80;

$$

  *****  SOME NATIONAL WEATHER *****

CITY           SKY/WX    TMP DP  RH WIND       PRES   REMARKS
LA GUARDIA NY  PTSUNNY   89  63  41 W10       29.99F HX  90
6HR MIN TEMP:  78; 6HR MAX TEMP:  89;




USA.gov is the U.S. government's official web portal to all federal, state and local government web resources and services.